Regional Weather Roundup
Issued by NWS Green Bay, WI

Home | Current Version | Previous Version | Text Only | Print | Product List | Glossary On
Versions: 1 2 3 4 5 6 7 8 9 10 11 12 13 14 15 16 17 18 19 20 21 22 23 24 25 26 27 28 29 30 31 32 33 34 35 36 37 38 39 40 41 42 43 44 45 46 47 48 49 50
000
ASUS43 KGRB 270400
RWRGRB

NORTH-CENTRAL AND NORTHEAST WISCONSIN REGIONAL WEATHER ROUNDUP
NATIONAL WEATHER SERVICE GREEN BAY WI
1100 PM CDT TUE MAY 26 2015

WIZ005-009-010>012-018-019-270500-
NORTH CENTRAL WISCONSIN

CITY           SKY/WX    TMP DP  RH WIND       PRES   REMARKS
IRONWOOD       CLOUDY    46  46 100 W5        29.73S VSB 1
MANITOWISH WTR NOT AVBL
ARBOR VITAE    NOT AVBL
EAGLE RIVER    NOT AVBL
LAND O LAKES   NOT AVBL
RHINELANDER    CLOUDY    59  57  93 N5        29.67F
PHILLIPS       NOT AVBL
ANTIGO         NOT AVBL
TOMAHAWK       NOT AVBL
MERRILL        NOT AVBL
$$

WIZ013-073-270500-
NORTHEAST WISCONSIN

CITY           SKY/WX    TMP DP  RH WIND       PRES   REMARKS
IRON MOUNTAIN  LGT RAIN  59  58  96 NE9       29.64F FOG
MARINETTE      CLOUDY    54  50  87 E5        29.63F
$$

WIZ017-030-035>037-045-270500-
CENTRAL WISCONSIN

CITY           SKY/WX    TMP DP  RH WIND       PRES   REMARKS
MEDFORD        NOT AVBL
WAUSAU         CLOUDY    62  61  96 N6        29.61F
MOSINEE        NOT AVBL
MARSHFIELD     HVY RAIN  59  57  93 NW20      29.67R FOG
WISC RAPIDS    LGT RAIN  61  58  90 W20G26    29.65R
STEVENS POINT  NOT AVBL
WAUPACA        NOT AVBL
SHAWANO        NOT AVBL
CLINTONVILLE   NOT AVBL
$$

WIZ038-039-048-051-270500-
FOX VALLEY

CITY           SKY/WX    TMP DP  RH WIND       PRES   REMARKS
NWS GREEN BAY  CLOUDY    66  59  78 SW14G22   29.65R
APPLETON       CLOUDY    64  57  77 SW18G24   29.67R
OSHKOSH        CLOUDY    64  57  78 SW15G28   29.68R
FOND DU LAC    CLOUDY    64  57  78 SW16G26   29.72R
$$

WIZ022-050-052-270500-
EAST CENTRAL WISCONSIN

CITY           SKY/WX    TMP DP  RH WIND       PRES   REMARKS
STURGEON BAY   PTCLDY    54  50  87 S10       29.67S
MANITOWOC      NOT AVBL
SHEBOYGAN      MOCLDY    64  57  78 SW18      29.71S
$$

LMZ563-521-522-541>543-270500-
LAKESHORE

STATION/POSITION TIME  TEMP    WIND        PRES    VSBY  WAVE
                       AIR SEA DIR/SP/G                  HT/PER
                 (UTC) (F)     (DEG/KT/KT) (MB)    (MI)  (FT/S)
SHEBOYGAN LKSHOR 0300   66     230/ 23/ 27 1006.0R
KEWAUNEE LKSHORE 0300   48     180/ 12/ 13 1003.9R
TWO RIVERS CG    0315   55                 1005.6   3 1/2  3
NORTHPORT PIER   0300   49     150/  9/ 13 1004.7F
N MID LAKE BUOY  0250   44 37  180/  4/  6 1005.7S         1/ 5
SISTER BAY LKSHO 0303   50     150/ 13/ 19   N/A
CHAMBERS ISLAND  0300   55     310/  1/  5 1004.4R
MENOMINEE LKSHOR 0300   55      50/  4/  5 1004.5R
$$


USA.gov is the U.S. government's official web portal to all federal, state and local government web resources and services.